SL-16 DEB, 22289

Orbit data source: Space-Track

SL-16 DEB, 22289 is space debris in LEO originally from a launch on Fri, 25 Dec 1992 UTC launched from the Tyuratam Missile And Space Complex (TTMTR). Debris objects in space refer to the collection of defunct objects orbiting the Earth. Examples of debris include non-operational satellites, rocket bodies, and fragments generated from explosions, collisions, or faulty payload assembly.

Loading next visibility...
Identifier
22289, 1992-093D
Orbit
LEO
Country
Flag of CISCIS
Related business
Manufacturer
Unknown
Mission
Spacecraft
Bus & Motor
Unknown
Mass
Unknown
Launch date (UTC)
1992-12-25 (33 years ago)
Launch vehicle
Unknown
Launch site
Tyuratam Missile And Space Complex (TTMTR)
Object type
Payload
Rocket body
Debris
Shape & HBR
Unknown shape, 0.2 m
Radar Cross Section
Small (<0.1 m²)

Expand to show TLE details & history
Last TLE update: 17 hours ago

TLE from 17 hours ago
0 SL-16 DEB
1 22289U 92093D   25352.15041234  .00000228  00000-0  99984-4 0  9998
2 22289  70.8320 355.3844 0062790 269.0297 159.3363 14.32943616721937
Epoch: 2025-12-18T03:36Z
TLE epoch observation values (Epoch: 2025-12-18T03:36:35.626Z)
Latitude
61.69555°
Longitude
-105.8289°
Altitude
834.021 km
Speed
7.42 km/s
True Right ascension
02h 21m 19s
True Declination
61° 33' 12"
Sunlit
Object was in full shadow at epoch
Visualization orbit readout
Latitude
Unknown
Longitude
Unknown
Altitude
Unknown
Speed
Unknown
Apparent Right ascension
Unknown
Apparent Declination
Unknown
Sunlit
N/A
Visualization observer readout
Local Sidereal Time
19:47:39
Azimuth
Unknown
Elevation
Unknown
Doppler factor
Unknown
Orbital elements
Apogee altitude
824.777 km
Perigee altitude
734.887 km
Semi-major axis
7,157.969 km
Eccentricity
0.00628
Inclination
70.832°
RAAN
355.3844°
Arg. of periapsis
269.0297°
True anomaly
159.58835°
Mean anomaly
159.3363°
Eccentric anomaly
159.46251°
Mean motion
3.58392 °/min
Orbital period
100.45 mins
BSTAR
0.000099984
Loading maneuver chart data...
Computing Atmospheric mass density...
Loading historical data...
Loading historical data...
Loading historical data...
Loading historical data...
Loading historical data...
Loading historical data...
Loading historical data...

Documentation

Showing up to 5 results
|